Retour au catalogue

COSMOS 2251 DEB

ActifLEO
NORAD 33992·DEBRIS·🇷🇺 Russia

Lancé Jun 16, 1993 depuis Plesetsk Cosmodrome

Loading…

Prochains Passages (prochaines 24 heures)

TLE

FraisSource: Space-Track

Époque: Sep 14, 2026, 04:56 UTC

1 33992U 93036GB  26257.20569149  .00001876  00000-0  32498-3 0  9996
2 33992  74.0226 165.4415 0053903 214.8076 297.7364 14.68132518931654

Suivez COSMOS 2251 DEB en temps réel avec AllMySat

Download on the App Store